Kenosha, WI

11:02 PM CDT on June 28, 2017 (GMT -0500)
Kenosha Regional

Weather History for KENW - January, 2013

Change the Weather History Date:

Wednesday, January 23, 2013

  Actual Average Record
Temperature  
Mean Temperature 11 °F -  
Max Temperature 19 °F 33 °F 55 °F (1967)
Min Temperature 3 °F 16 °F -20 °F (1963)
Degree Days  
Heating Degree Days 54    
Moisture  
Dew Point 5 °F    
Average Humidity 66    
Maximum Humidity 79    
Minimum Humidity 54    
Precipitation  
Precipitation 0.00 in - - ()
Sea Level Pressure  
Sea Level Pressure 30.20 in    
Wind  
Wind Speed 10 mph (West)    
Max Wind Speed 21 mph    
Max Gust Speed 29 mph    
Visibility 7 miles    
Events Snow    
Averages and records for this station are not official NWS values.
T = Trace of Precipitation, MM = Missing Value Source: NWS Daily Summary

Daily Weather History Graph

Daily Weather History Graph

Search for Another Location

Airport or City:

Trip Planner

Search our weather history database for the weather conditions in past years. The results will help you decide how hot, cold, wet, or windy it might be!

Date:

Astronomy

Jan. 23, 2013 Rise Set
Actual Time 7:13 AM CST 4:53 PM CST
Civil Twilight 6:43 AM CST 5:24 PM CST
Nautical Twilight 6:08 AM CST 5:58 PM CST
Astronomical Twilight 5:35 AM CST 6:32 PM CST
Moon 2:03 PM CST (1/23) 4:26 AM CST (1/23)
Length of Visible Light 10h 41m
Length of Day
9h 40m
Waxing Gibbous, 89% of the Moon is Illuminated
Jan 23
Waxing Gibbous
Jan 26
Full
Feb 3
Last Quarter
Feb 10
New
Feb 17
First Quarter

Hourly Weather History & Observations

Time (CST) Temp. Windchill Dew Point Humidity Pressure Visibility Wind Dir Wind Speed Gust Speed Precip Events Conditions
12:53 AM 3.9 °F -5.3 °F -5.1 °F 66% 30.33 in 10.0 mi West 4.6 mph - N/A   Clear
1:53 AM 7.0 °F -4.5 °F -4.0 °F 61% 30.34 in 10.0 mi West 6.9 mph - N/A   Overcast
2:53 AM 8.1 °F -2.0 °F -4.0 °F 58% 30.33 in 10.0 mi WSW 5.8 mph - N/A   Overcast
3:53 AM 9.0 °F -0.9 °F -2.0 °F 61% 30.32 in 10.0 mi WSW 5.8 mph - N/A   Overcast
4:53 AM 10.0 °F -1.9 °F -2.0 °F 58% 30.30 in 10.0 mi WSW 8.1 mph - N/A   Overcast
5:53 AM 10.0 °F -0.9 °F -2.9 °F 56% 30.29 in 10.0 mi WSW 6.9 mph - N/A   Overcast
6:53 AM 10.9 °F -1.8 °F -2.9 °F 54% 30.28 in 10.0 mi West 9.2 mph - N/A   Overcast
7:53 AM 10.9 °F -3.4 °F -0.9 °F 59% 30.26 in 8.0 mi West 11.5 mph - N/A   Overcast
8:53 AM 12.0 °F -1.3 °F 1.9 °F 64% 30.26 in 10.0 mi WSW 10.4 mph - 0.00 in   Overcast
9:53 AM 14.0 °F -0.2 °F 3.0 °F 62% 30.27 in 10.0 mi WSW 12.7 mph - N/A   Overcast
10:53 AM 15.1 °F 1.1 °F 3.9 °F 61% 30.25 in 9.0 mi WSW 12.7 mph - N/A   Overcast
11:31 AM 15.8 °F 3.4 °F 5.0 °F 62% 30.18 in 4.0 mi WSW 10.4 mph - 0.00 in Snow Light Snow
11:53 AM 16.0 °F 3.6 °F 6.1 °F 65% 30.21 in 2.5 mi SW 10.4 mph - 0.00 in Snow Light Snow
11:57 AM 15.8 °F 4.2 °F 6.8 °F 68% 30.16 in 1.8 mi SW 9.2 mph - 0.00 in Snow Light Snow
12:40 PM 17.6 °F 5.7 °F 6.8 °F 63% 30.12 in 2.5 mi SW 10.4 mph - 0.00 in Snow Light Snow
12:53 PM 17.1 °F 2.5 °F 7.0 °F 65% 30.16 in 4.0 mi WSW 15.0 mph - 0.00 in   Haze
1:07 PM 17.6 °F 3.2 °F 8.6 °F 68% 30.10 in 6.0 mi WSW 15.0 mph - N/A   Haze
1:36 PM 17.6 °F 3.2 °F 8.6 °F 68% 30.09 in 4.0 mi WSW 15.0 mph - 0.00 in Snow Light Snow
1:53 PM 18.0 °F 3.6 °F 8.1 °F 65% 30.13 in 5.0 mi WSW 15.0 mph - 0.00 in Snow Light Snow
2:15 PM 17.6 °F 3.7 °F 8.6 °F 68% 30.08 in 7.0 mi WSW 13.8 mph 19.6 mph 0.00 in   Overcast
2:53 PM 18.0 °F 2.6 °F 8.1 °F 65% 30.11 in 10.0 mi WSW 17.3 mph 23.0 mph 0.00 in   Overcast
3:34 PM 19.4 °F 5.5 °F 8.6 °F 63% 30.07 in 6.0 mi West 15.0 mph - 0.00 in Snow Light Snow
3:46 PM 19.4 °F 5.5 °F 10.4 °F 68% 30.07 in 2.5 mi West 15.0 mph - 0.00 in Snow Light Snow
4:38 PM 17.6 °F 5.7 °F 12.2 °F 79% 30.08 in 1.0 mi West 10.4 mph - 0.00 in Snow Light Snow
4:53 PM 18.0 °F 3.6 °F 10.9 °F 74% 30.13 in 1.5 mi West 15.0 mph - 0.00 in Snow Light Snow
5:01 PM 17.6 °F 3.7 °F 10.4 °F 73% 30.08 in 2.5 mi West 13.8 mph 21.9 mph 0.00 in Snow Light Snow
5:09 PM 17.6 °F 5.0 °F 10.4 °F 73% 30.08 in 2.0 mi West 11.5 mph - 0.00 in   Haze
5:53 PM 17.1 °F 6.6 °F 10.0 °F 74% 30.14 in 9.0 mi West 8.1 mph - 0.00 in   Overcast
6:53 PM 17.1 °F 5.8 °F 10.0 °F 74% 30.17 in 8.0 mi WNW 9.2 mph - N/A   Overcast
7:16 PM 17.6 °F 5.7 °F 12.2 °F 79% 30.12 in 1.5 mi WNW 10.4 mph - 0.00 in Snow Light Snow
7:20 PM 17.6 °F 5.7 °F 12.2 °F 79% 30.12 in 0.8 mi WNW 10.4 mph - 0.00 in Snow Light Snow
7:53 PM 17.1 °F 0.1 °F 7.0 °F 65% 30.21 in 8.0 mi NNW 20.7 mph 27.6 mph 0.00 in   Mostly Cloudy
8:00 PM 15.8 °F 1.4 °F 6.8 °F 68% 30.17 in 10.0 mi NNW 13.8 mph 25.3 mph N/A   Scattered Clouds
8:53 PM 14.0 °F -1.4 °F 3.0 °F 62% 30.25 in 10.0 mi NNW 15.0 mph 28.8 mph 0.00 in   Partly Cloudy
9:23 PM 12.2 °F -5.3 °F 1.4 °F 62% 30.22 in 10.0 mi NNW 18.4 mph 26.5 mph N/A   Mostly Cloudy
9:53 PM 12.0 °F -2.7 °F 1.9 °F 64% 30.30 in 10.0 mi NNW 12.7 mph 24.2 mph N/A   Mostly Cloudy
10:02 PM 12.2 °F -4.8 °F 1.4 °F 62% 30.25 in 10.0 mi NNW 17.3 mph 24.2 mph N/A   Scattered Clouds
10:53 PM 10.0 °F -6.5 °F 1.0 °F 67% 30.34 in 10.0 mi NNW 15.0 mph 23.0 mph N/A   Clear
11:53 PM 9.0 °F -7.9 °F -2.9 °F 59% 30.38 in 10.0 mi NNW 15.0 mph 21.9 mph N/A   Clear